Location: Gro� Glienicke
(52.4675°N, 13.1079°E)
Time: 19:17:32
(UTC+00:00)

Cosmos 1825 - Pass Details

Date: 06 July 2020
Orbit: 502 x 509 km, 82.5° (Epoch: 12 August)

Event Time Altitude Azimuth Distance (km) Brightness Sun altitude
Exits shadow 21:39:52 20° 151° (SSE) 1,233 3.5 -12.3°
Maximum altitude 21:42:02 38° 93° (E) 791 2.9 -12.4°
Drops below altitude 10° 21:45:36 10° 25° (NNE) 1,741 5.5 -12.6°
Sets 21:47:49 0° 17° (NNE) 2,632 6.7 -12.7°
